This is the latest recevied weather packets stored in our database for station/object JE0GNV-13. If no packets are shown the sender has not sent any weather packets the latest 10 day(s).
| Time | Temp. | Humidity | Pressure | Rain* | Wind** | Luminosity | Snow |
|---|---|---|---|---|---|---|---|
| 1777599602 | 12.22° C | 98% | 1000.7 hPa | 0.51 mm | - | - | - |
| 1777599000 | 11.67° C | 98% | 1000.8 hPa | 0.25 mm | - | - | - |
| 1777598400 | 11.67° C | 98% | 1001.2 hPa | 0.25 mm | - | - | - |
| 1777597800 | 11.67° C | 98% | 1001.3 hPa | 0.51 mm | - | - | - |
| 1777597201 | 11.67° C | 99% | 1002.1 hPa | 0.76 mm | - | - | - |
| 1777596601 | 11.11° C | 99% | 1002.4 hPa | 0.76 mm | - | - | - |
| 1777596001 | 11.11° C | 99% | 1002.5 hPa | 0.76 mm | - | - | - |
| 1777595401 | 10.56° C | 99% | 1001.9 hPa | 1.02 mm | - | - | - |
| 1777594801 | 10.56° C | 99% | 1002.9 hPa | 1.52 mm | - | - | - |
| 1777594200 | 10.56° C | 99% | 1003.1 hPa | 1.52 mm | - | - | - |
| 1777593600 | 10.56° C | 99% | 1003.4 hPa | 1.78 mm | - | - | - |
| 1777593001 | 10° C | 99% | 1003.7 hPa | 2.54 mm | - | - | - |
| 1777592402 | 10° C | 98% | 1003.8 hPa | 2.79 mm | - | - | - |
| 1777591801 | 10° C | 98% | 1004.3 hPa | 2.79 mm | - | - | - |
| 1777591200 | 10° C | 98% | 1004.6 hPa | 2.79 mm | - | - | - |
| 1777590602 | 10° C | 98% | 1004.7 hPa | 2.54 mm | - | - | - |
| 1777590002 | 10° C | 98% | 1005.1 hPa | 2.79 mm | - | - | - |
| 1777589400 | 10° C | 98% | 1005.2 hPa | 2.54 mm | - | - | - |
| 1777588801 | 10° C | 98% | 1005.2 hPa | 3.05 mm | - | - | - |
| 1777588201 | 9.44° C | 98% | 1005.4 hPa | 3.05 mm | - | - | - |
| 1777587601 | 9.44° C | 98% | 1005.6 hPa | 3.05 mm | - | - | - |
| 1777587001 | 9.44° C | 98% | 1005.7 hPa | 3.3 mm | - | - | - |
| 1777586402 | 9.44° C | 98% | 1005.8 hPa | 3.05 mm | - | - | - |
| 1777585800 | 9.44° C | 98% | 1005.7 hPa | 3.3 mm | - | - | - |
| 1777585201 | 9.44° C | 98% | 1005.7 hPa | 2.79 mm | - | - | - |
* Rain latest hour (hover to see other rain measurements)
** Current wind speed in m/s (hover to see current wind gust speed)